Content
SEND FEEDBACK

Daily
Averages
Monthly
Summary
Russia

APTEKARSKIY, RUSSIA


Home > Europe > Russia
Elevation: 20 feet     Latitude: 59 58N     Longitude: 030 18E

WEATHER
 
SELECT A DAY
Number of Records: 298,877;   Date Range: 7/1/96 - 7/22/14
 
SHARE

PRINT THIS DATA

[ ← Previous Day ]
WEATHER ALMANAC - JANUARY 31, 2013
[ Next Day → ]
[ °C ]   °F
Weather ElementAverageHighLow
Temperature30.5 °F33.8 °F (10:00 pm)26.6 °F (12:30 am)
Dewpoint28.5 °F32 °F (10:00 pm)24 °F (1:00 am)
Humidity91.5 %95 % (10:00 am)82 % (4:00 am)
Barometer29.18 in29.28 in (1:00 am)29.12 in (9:30 pm)
Wind Speed11.3 mph24.6 mph (12:30 am)
Wind Gust26.8 mph (4:30 am)
Weather ElementAverage
Visibility4.5 mi
Wind DirectionSSE (159.1 °)

Weather ElementTotal
Precipitation---
Heating Degree Days34.8 (Base 65)
Averaged from 55 records on January 31, 2013
WEATHER CONDITIONS BREAKOUT
WIND DIRECTION BREAKOUT
WEATHER BY HOUR - JANUARY 31, 2013
[ °C ]   °F
Local TimeTemperatureDewpointHumidityBarometerVisibilityWind DirectionWind SpeedGust SpeedPrecipitationEventsConditions
12:30 AM26.6 °F24.8 °F93 %29.27 in0.4 miSSE (150°)24.6 mphSnowHeavy Blowing Snow
1:00 AM27.0 °F24.0 °F85 %29.28 in1.0 miSouth (170°)6.7 mphSnowSnow
1:00 AM26.6 °F24.8 °F93 %29.27 in0.4 miSSE (150°)15.7 mphSnowHeavy Blowing Snow
1:30 AM26.6 °F24.8 °F93 %29.27 in0.4 miSSE (150°)17.9 mphSnowHeavy Blowing Snow
2:00 AM26.6 °F24.8 °F93 %29.24 in0.3 miSSE (150°)15.7 mphSnowHeavy Blowing Snow
2:30 AM26.6 °F24.8 °F93 %29.24 in0.6 miSSE (160°)22.4 mphSnowSnow Showers
3:00 AM26.6 °F24.8 °F93 %29.21 in0.8 miSSE (160°)20.1 mphSnowSnow
3:30 AM26.6 °F24.8 °F93 %29.21 in1.4 miSSE (160°)20.1 mphSnowLight Snow
4:00 AM28.0 °F25.0 °F82 %29.22 in6.0 miSE (130°)6.7 mphSnowLow Drifting Snow
4:00 AM28.4 °F26.6 °F93 %29.21 in2.5 miSSE (160°)15.7 mphSnowLight Snow
4:30 AM28.4 °F26.6 °F93 %29.21 in1.6 miSSE (160°)13.4 mph26.8 mphSnowBlowing Snow
5:00 AM28.4 °F26.6 °F93 %29.18 in3.1 miSouth (170°)13.4 mph24.6 mphSnowLight Blowing Snow
5:30 AM30.2 °F26.6 °F86 %29.18 in6.2 miSouth (170°)13.4 mph24.6 mphSnowLow Drifting Snow
6:00 AM30.2 °F26.6 °F86 %29.18 in6.2 miSouth (170°)13.4 mph26.8 mphSnowLow Drifting Snow
6:30 AM30.2 °F28.4 °F93 %29.18 in6.2 miSouth (170°)15.7 mph26.8 mphSnowLight Snow
7:00 AM30.0 °F27.0 °F84 %29.21 in6.0 miSSW (210°)6.7 mphPartly Cloudy
7:00 AM30.2 °F28.4 °F93 %29.18 in6.2 miSouth (170°)15.7 mphSnowLight Snow
7:30 AM30.2 °F28.4 °F93 %29.18 in4.3 miSouth (180°)15.7 mphSnowLight Snow
8:00 AM30.2 °F28.4 °F93 %29.18 in5.0 miSouth (170°)17.9 mphSnowLight Snow
8:30 AM30.2 °F28.4 °F93 %29.18 in2.8 miSouth (170°)13.4 mphSnowLight Snow
9:00 AM30.2 °F28.4 °F93 %29.18 in3.7 miSouth (170°)13.4 mphSnowLight Snow
9:30 AM30.2 °F28.4 °F93 %29.18 in5.0 miSSE (160°)11.2 mphSnowLight Snow
10:00 AM31.0 °F30.0 °F95 %29.20 in6.0 miSouth (170°)6.7 mphPartly Cloudy
10:00 AM30.2 °F28.4 °F93 %29.18 in6.2 miSSE (160°)8.9 mphSnowLow Drifting Snow
10:30 AM30.2 °F28.4 °F93 %29.18 in6.2 miSSE (160°)11.2 mphOvercast
11:00 AM30.2 °F28.4 °F93 %29.18 in6.2 miSSE (150°)11.2 mphOvercast
11:30 AM30.2 °F28.4 °F93 %29.18 in6.2 miSSE (160°)11.2 mphOvercast
12:00 PM30.2 °F28.4 °F93 %29.18 in6.2 miSSE (160°)11.2 mphOvercast
12:30 PM30.2 °F28.4 °F93 %29.18 in6.2 miSSE (160°)13.4 mphOvercast
1:00 PM32.0 °F29.0 °F82 %29.20 in6.0 miSouth (180°)6.7 mphOvercast
1:00 PM30.2 °F28.4 °F93 %29.18 in6.2 miSSE (160°)13.4 mphOvercast
1:30 PM30.2 °F28.4 °F93 %29.18 in6.2 miSSW (200°)6.7 mph17.9 mphSnowLow Drifting Snow
2:00 PM32.0 °F30.2 °F93 %29.18 in6.2 miSSE (160°)6.7 mphSnowLight Snow
2:30 PM32.0 °F30.2 °F93 %29.18 in6.2 miSSE (150°)6.7 mphSnowLight Snow
3:00 PM32.0 °F30.2 °F93 %29.18 in3.7 miSE (130°)11.2 mphSnowLight Snow
3:30 PM32.0 °F30.2 °F93 %29.18 in3.1 miSE (140°)8.9 mphSnowLight Snow
4:00 PM32.0 °F29.0 °F84 %29.18 in2.0 miSE (140°)4.5 mphSnowLight Snow
4:00 PM32.0 °F30.2 °F93 %29.18 in3.1 miSSE (150°)8.9 mphSnowLight Snow
4:30 PM32.0 °F30.2 °F93 %29.18 in6.2 miSSE (150°)8.9 mphSnowLight Snow
5:00 PM32.0 °F30.2 °F93 %29.15 in6.2 miSE (140°)8.9 mphSnowLight Snow
5:30 PM32.0 °F30.2 °F93 %29.15 in3.1 miSE (140°)8.9 mphSnowLight Snow
6:00 PM32.0 °F30.2 °F93 %29.15 in6.2 miSE (130°)8.9 mphSnowLight Snow
6:30 PM32.0 °F30.2 °F93 %29.15 in5.0 miSE (130°)8.9 mphSnowLight Snow
7:00 PM33.0 °F29.0 °F82 %29.17 in6.0 miSouth (190°)4.5 mphSnowLight Snow
7:00 PM32.0 °F30.2 °F93 %29.15 in5.0 miESE (120°)8.9 mphSnowLight Snow
7:30 PM32.0 °F30.2 °F93 %29.15 in6.2 miSSE (150°)6.7 mphOvercast
8:00 PM32.0 °F30.2 °F93 %29.15 in6.2 miSE (130°)6.7 mphOvercast
8:30 PM32.0 °F30.2 °F93 %29.15 in3.7 miSSE (150°)8.9 mphSnowLight Snow
9:00 PM32.0 °F30.2 °F93 %29.15 in3.7 miSSE (160°)8.9 mphSnowLight Snow Showers
9:30 PM32.0 °F30.2 °F93 %29.12 in5.0 miSouth (170°)8.9 mphSnowLight Snow Showers
10:00 PM33.0 °F30.0 °F84 %29.15 in6.0 miSSE (150°)4.5 mphSnowLight Snow
10:00 PM33.8 °F32.0 °F93 %29.12 in6.2 miSSE (160°)6.7 mphOvercast
10:30 PM33.8 °F32.0 °F93 %29.12 in6.2 miSouth (180°)11.2 mphOvercast
11:00 PM33.8 °F32.0 °F93 %29.12 in6.2 miSouth (180°)13.4 mphOvercast
11:30 PM33.8 °F32.0 °F93 %29.15 in3.1 miSouth (180°)11.2 mphOvercast
Hourly data recorded from ULLI, located miles away from Aptekarskiy, Russia







STORIES FROM OUR PARTNERS